Precipitable_Water
0.71 0.79 0.88 0.95 1.01 1.08 1.14 1.18 1.20 1.24 1.19 1.16 1.20 1.19 1.13 1.01 0.90 0.87 0.89 0.89 0.88 0.87 0.84 0.81 0.78 0.72 0.69 0.65 0.59 0.56 0.50 0.46
0.70 0.78 0.87 0.95 1.02 1.07 1.10 1.14 1.26 1.21 1.17 1.11 1.11 1.03 0.93 0.92 0.90 0.89 0.88 0.89 0.86 0.82 0.77 0.76 0.74 0.70 0.63 0.57 0.53 0.47 0.43 0.44
0.71 0.78 0.88 0.96 0.99 1.05 1.13 1.21 1.21 1.18 1.12 1.14 1.01 0.89 0.89 0.86 0.86 0.86 0.86 0.81 0.80 0.81 0.79 0.75 0.71 0.64 0.57 0.51 0.47 0.43 0.43 0.45
0.69 0.79 0.87 0.98 1.02 1.08 1.13 1.14 1.16 1.13 1.13 1.08 0.95 0.92 0.84 0.77 0.78 0.77 0.79 0.82 0.83 0.82 0.77 0.72 0.67 0.62 0.54 0.49 0.47 0.45 0.42 0.45
0.79 0.85 0.91 0.98 1.05 1.14 1.14 1.15 1.10 1.12 1.11 1.01 0.85 0.75 0.70 0.74 0.77 0.82 0.84 0.84 0.82 0.79 0.74 0.71 0.66 0.60 0.56 0.56 0.52 0.49 0.47 0.42
0.83 0.89 0.94 1.03 1.08 1.08 1.07 1.01 1.00 1.06 1.00 0.93 0.84 0.74 0.77 0.80 0.83 0.83 0.83 0.82 0.78 0.75 0.72 0.68 0.63 0.60 0.57 0.54 0.52 0.49 0.49 0.46
0.97 1.00 0.99 0.93 0.95 0.99 1.02 0.98 0.98 0.91 0.90 0.85 0.81 0.79 0.79 0.77 0.78 0.77 0.75 0.71 0.70 0.70 0.68 0.63 0.60 0.56 0.54 0.52 0.49 0.47 0.46 0.45
0.89 0.89 0.90 0.86 0.88 0.94 0.95 0.89 0.86 0.88 0.85 0.80 0.79 0.78 0.78 0.77 0.76 0.74 0.71 0.70 0.70 0.72 0.63 0.56 0.53 0.52 0.50 0.44 0.43 0.42 0.45 0.46
0.77 0.81 0.79 0.79 0.81 0.82 0.84 0.83 0.82 0.83 0.81 0.79 0.81 0.82 0.80 0.79 0.76 0.72 0.73 0.75 0.72 0.61 0.50 0.48 0.46 0.43 0.41 0.38 0.37 0.36 0.39 0.43
0.68 0.71 0.73 0.75 0.76 0.78 0.81 0.80 0.80 0.79 0.77 0.77 0.78 0.80 0.77 0.73 0.73 0.73 0.82 0.75 0.59 0.50 0.48 0.44 0.41 0.39 0.38 0.38 0.36 0.35 0.40 0.41
0.63 0.65 0.66 0.70 0.75 0.79 0.82 0.82 0.79 0.78 0.76 0.78 0.80 0.76 0.75 0.77 0.77 0.73 0.67 0.53 0.47 0.46 0.44 0.43 0.42 0.40 0.40 0.41 0.39 0.40 0.40 0.40
0.62 0.62 0.68 0.73 0.76 0.77 0.78 0.79 0.80 0.78 0.77 0.80 0.78 0.74 0.76 0.74 0.67 0.65 0.54 0.47 0.46 0.45 0.45 0.44 0.43 0.41 0.41 0.40 0.39 0.39 0.39 0.40
0.63 0.64 0.70 0.74 0.77 0.81 0.79 0.76 0.76 0.78 0.80 0.78 0.76 0.74 0.67 0.65 0.60 0.53 0.47 0.46 0.47 0.45 0.46 0.44 0.42 0.42 0.41 0.39 0.37 0.34 0.31 0.30
0.65 0.69 0.71 0.76 0.80 0.81 0.76 0.76 0.77 0.79 0.81 0.74 0.67 0.65 0.58 0.56 0.53 0.46 0.47 0.45 0.45 0.48 0.45 0.43 0.43 0.43 0.41 0.40 0.37 0.33 0.31 0.30
0.65 0.70 0.76 0.82 0.83 0.81 0.80 0.78 0.77 0.75 0.68 0.62 0.57 0.53 0.55 0.52 0.46 0.45 0.43 0.47 0.48 0.46 0.46 0.43 0.43 0.42 0.41 0.40 0.36 0.32 0.32 0.34
0.68 0.71 0.76 0.83 0.79 0.75 0.72 0.69 0.68 0.64 0.58 0.51 0.49 0.51 0.51 0.45 0.43 0.44 0.45 0.47 0.45 0.45 0.44 0.44 0.42 0.41 0.40 0.37 0.35 0.34 0.34 0.33
0.68 0.71 0.72 0.69 0.67 0.65 0.61 0.61 0.61 0.56 0.50 0.48 0.48 0.49 0.43 0.45 0.44 0.49 0.46 0.45 0.43 0.41 0.41 0.41 0.39 0.39 0.37 0.33 0.32 0.32 0.34 0.36
0.61 0.65 0.66 0.61 0.61 0.61 0.58 0.57 0.53 0.49 0.48 0.47 0.45 0.46 0.47 0.50 0.50 0.47 0.44 0.40 0.39 0.38 0.38 0.37 0.35 0.35 0.35 0.31 0.34 0.32 0.31 0.34
0.57 0.60 0.61 0.62 0.62 0.59 0.55 0.52 0.49 0.48 0.47 0.46 0.50 0.53 0.53 0.49 0.44 0.38 0.35 0.34 0.32 0.33 0.33 0.34 0.32 0.32 0.33 0.31 0.33 0.34 0.31 0.30
Wind_Speed
10 11 11 10 9 8 8 7 7 7 8 8 10 11 12 12 11 12 12 13 14 16 18 18 21 24 26 27 29 30 32 33
9 8 10 9 9 8 8 8 9 9 10 11 11 11 11 12 12 12 13 14 15 17 18 20 23 25 28 29 31 32 33 34
8 8 8 10 9 9 9 9 10 11 11 11 10 10 11 12 12 12 13 15 17 19 22 24 26 28 29 32 33 34 34 35
9 8 9 10 10 10 10 10 11 11 10 10 11 12 12 12 13 15 17 18 20 22 24 27 29 30 32 34 36 35 36 36
10 10 10 11 11 10 11 12 11 10 11 11 12 13 13 14 16 18 19 20 24 27 28 30 32 32 34 36 37 37 37 37
12 11 12 12 13 13 12 10 10 12 12 13 14 15 16 18 18 20 22 25 27 30 32 32 32 34 35 36 37 38 38 38
10 10 11 11 11 11 11 11 11 10 12 13 15 15 16 17 20 22 25 27 29 31 32 33 34 36 38 39 41 41 40 40
11 10 10 10 11 12 12 11 11 12 13 14 15 17 19 21 23 26 28 30 32 33 34 35 37 38 40 41 41 41 42 43
11 11 10 10 11 11 12 13 13 14 16 17 19 20 22 24 26 30 31 32 33 34 35 37 38 39 40 41 41 41 43 44
12 12 12 11 12 14 15 16 16 17 17 19 21 23 24 26 29 32 34 33 35 36 36 37 38 39 41 41 41 43 43 44
13 13 14 14 14 15 17 19 19 19 19 21 23 25 28 29 31 35 33 34 35 36 37 38 39 40 40 40 41 42 43 45
13 14 16 16 16 16 16 17 19 21 23 24 26 28 30 33 34 33 33 35 36 37 38 39 40 40 40 42 43 45 47 47
14 16 16 17 17 17 18 18 20 23 25 26 28 31 32 33 34 34 34 35 37 38 39 40 41 41 42 43 45 47 47 48
16 16 17 17 17 18 19 21 22 24 27 28 30 31 32 32 32 34 36 37 38 40 40 41 42 42 43 45 47 47 47 45
17 17 17 18 19 20 21 23 25 27 28 30 31 31 33 33 35 36 38 39 40 40 41 42 41 43 45 47 49 47 46 45
16 17 18 19 21 22 24 25 26 28 29 29 30 31 33 34 36 37 39 41 41 42 43 42 43 45 47 48 48 46 45 43
17 18 20 21 23 24 25 26 27 28 28 29 31 33 34 36 37 39 39 39 40 41 43 43 44 46 47 47 46 46 44 41
19 20 22 23 24 24 25 26 26 27 28 30 32 34 35 36 38 38 38 39 40 42 43 44 46 47 47 46 45 43 39 36
18 19 20 22 23 23 24 25 27 28 30 31 34 36 37 36 37 38 39 40 42 44 45 46 45 46 46 45 42 38 35 33
Wind_Direction
170 171 171 176 182 191 198 215 229 241 264 277 288 291 294 297 297 300 300 302 303 301 304 306 308 309 310 310 310 310 310 310
173 177 192 192 199 208 221 240 243 258 270 281 286 290 294 298 298 301 300 302 305 307 309 309 310 309 310 311 311 311 311 310
198 208 214 215 221 232 241 248 257 265 274 281 288 289 295 298 298 301 303 305 308 308 308 308 309 308 309 310 311 311 310 310
222 230 234 233 236 239 247 255 259 265 270 277 288 292 295 296 297 301 304 303 306 307 307 308 309 308 308 309 311 310 310 309
233 238 240 239 241 244 251 263 259 261 272 275 282 289 292 291 294 299 302 301 304 305 306 307 307 307 308 308 308 308 307 307
237 240 239 241 244 252 253 247 255 268 271 279 283 289 294 295 295 299 302 304 305 306 307 308 307 308 308 309 309 308 307 306
231 236 238 244 243 237 239 251 261 270 279 282 287 291 294 299 300 302 305 307 309 310 310 309 308 309 309 309 309 308 306 306
233 235 239 241 241 242 243 246 260 274 284 288 290 292 294 296 298 300 301 302 305 306 307 307 307 308 308 309 308 307 306 306
232 233 233 235 240 244 252 259 269 278 284 286 289 291 294 297 299 302 302 300 304 305 306 307 307 308 308 308 308 307 307 306
231 232 234 245 250 255 262 267 273 279 283 287 290 292 294 298 299 302 301 300 303 305 306 307 308 309 309 308 308 308 307 307
239 241 243 251 256 262 267 271 275 279 284 289 292 295 296 297 300 303 301 301 303 304 306 307 308 309 309 309 310 310 309 309
248 251 252 258 261 266 270 274 276 282 288 291 294 296 298 299 302 302 301 302 304 305 306 306 308 308 308 309 310 310 309 309
256 256 257 262 268 273 275 279 281 284 288 291 294 298 300 299 302 303 303 304 305 305 306 306 307 307 308 309 310 311 311 310
260 259 259 262 267 273 281 283 285 288 290 292 295 297 299 301 302 303 303 304 305 306 306 307 307 306 308 309 310 310 310 310
262 262 263 264 270 276 280 285 287 289 291 293 295 298 300 301 303 303 304 304 304 306 306 307 307 307 308 309 309 309 308 308
263 263 264 268 275 279 284 287 288 290 292 294 297 299 301 303 304 304 304 306 304 304 306 306 306 307 309 309 309 308 307 307
267 266 267 274 278 281 284 286 289 292 293 296 298 301 302 304 305 306 306 307 307 306 306 306 307 308 309 310 309 308 307 304
270 271 273 277 280 283 286 290 292 294 295 298 300 302 303 305 306 307 308 309 309 310 308 308 308 308 309 309 309 309 307 305
279 280 283 285 287 289 291 292 294 296 298 299 301 303 302 304 306 308 309 311 311 311 309 308 309 310 310 310 308 308 307 306